Ardmore, OK

10:25 PM CDT on April 21, 2018 (GMT -0500)
Ardmore Municipal

Weather History for KADM - March, 2014

Change the Weather History Date:

Monday, March 3, 2014

  Actual Average Record
Temperature  
Mean Temperature 20 °F -  
Max Temperature 30 °F 57 °F 75 °F (2011)
Min Temperature 10 °F 38 °F 6 °F (2002)
Degree Days  
Heating Degree Days 45    
Moisture  
Dew Point 12 °F    
Average Humidity 76    
Maximum Humidity 93    
Minimum Humidity 55    
Precipitation  
Precipitation 0.00 in - - ()
Sea Level Pressure  
Sea Level Pressure 30.39 in    
Wind  
Wind Speed 13 mph (North)    
Max Wind Speed 18 mph    
Max Gust Speed 25 mph    
Visibility 10 miles    
Events Snow    
Averages and records for this station are not official NWS values.
T = Trace of Precipitation, MM = Missing Value Source: NWS Daily Summary

Daily Weather History Graph

Daily Weather History Graph

Search for Another Location

Airport or City:

Astronomy

Mar. 03, 2014 Rise Set
Actual Time 6:54 AM CST 6:26 PM CST
Civil Twilight 6:29 AM CST 6:51 PM CST
Nautical Twilight 6:00 AM CST 7:20 PM CST
Astronomical Twilight 5:31 AM CST 7:49 PM CST
Moon 8:11 AM CST (3/3) 9:20 PM CST (3/3)
Length of Visible Light 12h 21m
Length of Day
11h 31m
Waxing Crescent, 8% of the Moon is Illuminated
Mar 3
Waxing Crescent
Mar 8
First Quarter
Mar 16
Full
Mar 23
Last Quarter
Mar 30
New

Hourly Weather History & Observations

Time (CST) Temp. Windchill Dew Point Humidity Pressure Visibility Wind Dir Wind Speed Gust Speed Precip Events Conditions
12:15 AM 15.8 °F -0.6 °F 11.5 °F 83% 30.38 in 7.0 mi North 18.4 mph - N/A Snow Light Snow
12:35 AM 15.8 °F -0.2 °F 10.4 °F 79% 30.39 in 10.0 mi North 17.3 mph 24.2 mph N/A   Mostly Cloudy
12:55 AM 15.6 °F -0.4 °F 10.8 °F 81% 30.41 in 10.0 mi North 17.3 mph 24.2 mph N/A   Mostly Cloudy
1:15 AM 15.4 °F -0.1 °F 10.4 °F 80% 30.43 in 10.0 mi North 16.1 mph 21.9 mph N/A   Overcast
1:35 AM 14.9 °F -0.3 °F 9.9 °F 80% 30.42 in 10.0 mi NNW 15.0 mph 24.2 mph N/A   Overcast
1:55 AM 14.9 °F 0.9 °F 10.2 °F 82% 30.41 in 10.0 mi North 12.7 mph 23.0 mph N/A   Overcast
2:15 AM 14.9 °F -1.3 °F 9.5 °F 79% 30.42 in 10.0 mi North 17.3 mph 23.0 mph N/A   Mostly Cloudy
2:35 AM 14.7 °F -2.0 °F 9.5 °F 80% 30.42 in 10.0 mi North 18.4 mph 23.0 mph N/A   Overcast
2:55 AM 14.7 °F -1.6 °F 9.3 °F 79% 30.42 in 10.0 mi North 17.3 mph - N/A   Mostly Cloudy
3:15 AM 14.0 °F -1.4 °F 8.8 °F 80% 30.42 in 10.0 mi NNW 15.0 mph 21.9 mph N/A   Mostly Cloudy
3:35 AM 14.0 °F -3.0 °F 9.0 °F 80% 30.42 in 10.0 mi North 18.4 mph 23.0 mph N/A   Overcast
3:55 AM 13.8 °F -1.1 °F 8.6 °F 80% 30.42 in 10.0 mi North 13.8 mph 25.3 mph N/A   Overcast
4:15 AM 13.5 °F 1.3 °F 8.4 °F 80% 30.42 in 10.0 mi North 9.2 mph - N/A   Mostly Cloudy
4:35 AM 12.9 °F -0.9 °F 8.1 °F 81% 30.41 in 10.0 mi North 11.5 mph 19.6 mph N/A   Scattered Clouds
4:55 AM 12.6 °F 0.2 °F 7.7 °F 81% 30.41 in 10.0 mi North 9.2 mph - N/A   Scattered Clouds
5:15 AM 11.8 °F -4.2 °F 6.6 °F 80% 30.42 in 10.0 mi North 15.0 mph - N/A   Scattered Clouds
5:35 AM 11.3 °F -4.9 °F 6.6 °F 81% 30.43 in 10.0 mi North 15.0 mph - N/A   Clear
6:55 AM 10.4 °F -4.8 °F 5.0 °F 79% 30.46 in 10.0 mi North 12.7 mph - N/A   Mostly Cloudy
7:55 AM 10.4 °F -4.8 °F 5.0 °F 79% 30.49 in 10.0 mi NNW 12.7 mph - N/A   Scattered Clouds
8:55 AM 12.2 °F -3.1 °F 6.8 °F 79% 30.48 in 10.0 mi North 13.8 mph 20.7 mph N/A   Clear
9:55 AM 15.8 °F 0.3 °F 8.6 °F 73% 30.49 in 10.0 mi North 16.1 mph - N/A   Clear
10:55 AM 17.6 °F 5.0 °F 8.6 °F 68% 30.50 in 10.0 mi North 11.5 mph - N/A   Clear
11:55 AM 21.2 °F 10.1 °F 10.4 °F 63% 30.38 in 10.0 mi WNW 10.4 mph 17.3 mph N/A   Clear
2:55 PM 30.2 °F 20.8 °F 15.8 °F 55% 30.35 in 10.0 mi North 11.5 mph - N/A   Clear
3:55 PM 28.4 °F 24.6 °F 15.8 °F 59% 30.33 in 10.0 mi NNE 3.5 mph - N/A   Clear
4:55 PM 28.4 °F 24.6 °F 15.8 °F 59% 30.35 in 10.0 mi NNE 3.5 mph - N/A   Clear
5:55 PM 28.4 °F - 15.8 °F 59% 30.34 in 10.0 mi Calm Calm - N/A   Clear
6:55 PM 26.6 °F - 15.8 °F 64% 30.34 in 10.0 mi Calm Calm - N/A   Clear
7:55 PM 24.8 °F - 17.6 °F 74% 30.32 in 10.0 mi Calm Calm - N/A   Clear
8:55 PM 24.8 °F - 17.6 °F 74% 30.32 in 10.0 mi Calm Calm - N/A   Clear
9:55 PM 24.8 °F - 23.0 °F 93% 30.34 in 10.0 mi Calm Calm - N/A   Clear
10:35 PM 24.8 °F - 17.1 °F 72% 30.33 in 10.0 mi Calm Calm - N/A   Clear
10:55 PM 23.9 °F - 16.9 °F 75% 30.32 in 10.0 mi Calm Calm - N/A   Clear
11:15 PM 23.7 °F - 18.3 °F 80% 30.32 in 10.0 mi Calm Calm - N/A   Clear
11:35 PM 23.0 °F - 18.1 °F 82% 30.31 in 10.0 mi Calm Calm - N/A   Clear
11:55 PM 21.6 °F 16.8 °F 18.7 °F 89% 30.31 in 10.0 mi NNE 3.5 mph - N/A   Clear